Wind_Speed
22 23 22 23 23 23 22 21 20 20 20 20 19 18 18 17 17 18 17 16 16 16 15 14 14 13 13 13 12 12 12 12 11 11 11 11 11 11 11 11 11 11 11 11 11 10 11 11 10
23 23 23 23 24 23 22 21 21 21 21 21 21 20 19 19 18 18 17 17 17 16 16 15 15 14 14 14 13 13 13 13 13 13 13 13 12 12 13 13 13 13 13 13 13 13 12 12 12
24 24 24 24 23 23 22 22 22 22 22 22 21 21 21 20 20 19 18 18 17 17 17 16 16 16 15 14 14 14 15 14 14 14 14 14 14 14 14 14 14 14 14 15 15 15 14 14 14
25 25 25 24 23 23 23 23 23 23 24 23 22 22 22 22 21 20 20 19 19 19 18 18 17 17 16 16 15 15 16 16 16 16 16 15 15 15 15 15 16 16 16 16 16 16 16 16 16
27 26 26 24 23 23 23 23 23 24 24 24 24 23 23 23 22 22 21 20 20 20 19 19 19 18 17 17 17 17 17 17 17 17 17 17 17 17 17 17 17 17 17 17 18 17 17 17 17
28 28 27 25 24 24 24 24 24 25 25 25 25 24 24 24 23 23 22 22 21 20 20 19 19 19 18 18 18 18 18 18 19 19 19 19 19 19 19 19 19 19 19 19 19 19 19 19 19
29 28 28 26 25 25 25 25 25 25 25 25 25 25 25 25 24 24 24 23 22 22 21 21 20 20 20 19 19 19 19 19 20 20 20 20 21 21 21 21 21 21 21 21 21 20 21 21 21
30 30 29 27 26 26 25 26 26 26 26 26 25 25 25 25 25 25 25 24 24 23 23 23 22 22 22 21 21 21 21 21 21 21 21 22 22 22 22 22 22 22 23 23 23 23 23 23 23
31 31 29 28 27 26 26 26 26 26 26 26 26 25 25 25 25 25 25 25 25 24 24 24 24 24 24 23 23 23 23 22 22 22 22 23 23 23 23 23 23 24 24 24 24 25 25 25 25
32 31 29 29 28 28 28 27 27 26 26 26 27 27 26 26 26 26 27 26 26 26 25 25 25 25 25 25 25 25 24 24 24 24 24 24 24 24 24 24 24 24 25 25 25 26 27 27 26
32 31 30 30 30 30 29 29 28 27 27 27 27 28 27 28 27 27 28 27 27 26 26 26 26 25 25 25 26 26 25 25 25 25 25 25 25 25 25 25 25 25 26 26 27 27 28 28 29
33 32 32 31 31 31 30 30 29 28 28 28 28 28 28 28 29 29 29 29 28 28 27 27 26 26 26 26 27 27 27 26 26 26 26 26 26 26 26 27 27 27 28 28 29 29 30 30 31
33 32 32 32 32 32 32 31 31 29 29 29 29 29 29 29 29 30 30 30 30 29 29 29 28 28 28 28 28 28 28 28 28 28 28 28 28 28 28 28 28 29 29 30 31 32 32 33 33
34 33 33 33 33 33 33 33 32 31 31 31 31 31 30 30 30 30 31 31 31 31 31 30 30 30 30 30 30 30 30 30 30 30 30 31 30 30 30 30 31 31 31 32 33 34 34 35 36
36 35 35 35 35 34 35 34 33 33 33 33 32 32 31 31 31 31 31 32 32 32 32 31 31 31 31 31 31 31 31 31 32 32 32 32 32 32 32 32 33 33 34 35 35 36 37 38 38
37 37 37 36 36 36 36 34 33 34 35 34 34 33 32 32 32 32 32 32 32 32 32 32 32 32 32 32 32 32 32 32 33 34 34 34 34 34 34 34 35 36 37 38 38 39 40 40 41
39 38 38 37 38 37 38 35 35 36 36 36 35 35 34 34 33 33 33 32 32 32 32 32 32 33 33 33 33 33 33 34 35 35 35 36 36 36 36 37 38 38 39 40 41 42 42 43 43
40 39 39 38 38 39 39 37 36 37 38 38 37 37 36 36 35 35 34 34 33 34 34 33 33 33 34 34 35 35 35 36 37 37 37 38 38 38 39 39 40 40 41 42 43 44 44 45 45
42 41 40 39 39 40 40 38 38 39 39 39 39 39 38 38 37 37 36 35 35 35 35 34 34 34 35 35 36 36 37 37 38 38 39 39 40 40 41 41 41 42 43 44 44 44 45 46 47
43 42 41 40 41 41 41 40 39 39 39 39 39 40 40 39 39 38 37 36 36 36 36 36 35 36 36 37 37 38 38 38 39 40 41 41 42 42 43 44 44 44 44 44 45 45 46 47 47
43 42 41 41 41 42 42 41 39 38 39 39 40 40 40 40 39 39 38 37 37 36 36 36 36 37 37 38 38 39 39 40 41 41 42 43 44 44 45 45 46 46 46 46 46 46 46 47 48
43 42 42 42 42 42 42 42 38 38 38 39 39 40 39 39 39 39 39 38 37 37 37 37 38 38 38 38 39 40 40 41 42 43 43 44 45 45 46 46 47 47 48 48 48 48 49 49 49
42 42 42 42 43 43 42 43 39 38 39 39 39 39 40 40 40 40 39 39 38 38 38 38 39 39 39 39 40 41 42 42 43 44 45 45 45 46 46 47 47 48 48 49 50 50 51 50 50
42 41 43 44 44 45 42 43 41 39 38 38 39 39 39 39 40 40 39 39 39 39 39 39 40 40 40 41 41 42 43 44 44 45 45 45 45 46 47 48 49 49 50 50 51 51 51 51 51
42 42 43 45 46 46 43 44 43 40 38 38 38 37 38 39 40 40 39 39 39 39 40 41 41 41 41 42 42 43 44 44 44 45 45 46 46 46 47 48 49 50 50 51 52 52 53 53 53
42 42 44 45 46 46 45 45 43 40 39 38 38 38 38 39 39 39 39 40 40 40 40 41 41 41 41 42 43 43 44 44 45 45 46 46 46 46 48 49 50 51 51 52 53 53 54 54 54
44 43 42 45 47 47 47 45 42 40 39 38 38 38 38 38 39 39 40 40 40 40 40 41 41 41 42 42 43 44 44 44 45 46 46 46 46 47 48 50 51 51 52 53 54 54 54 54 55
45 44 44 45 47 47 48 45 42 39 39 38 38 37 38 38 38 39 40 40 40 40 40 41 41 42 42 43 43 43 44 44 45 45 46 46 47 47 48 50 51 52 52 53 54 55 56 56 56
44 45 46 46 47 47 47 45 42 39 38 38 37 37 37 38 38 39 39 40 40 40 41 41 41 42 42 42 43 43 44 44 45 45 46 47 47 48 49 51 51 52 53 53 54 54 54 55 55
43 44 44 46 46 46 45 45 41 39 38 38 37 37 38 38 38 38 39 39 40 40 41 41 41 42 42 42 42 42 43 44 44 46 47 47 48 48 50 50 51 52 52 53 53 54 54 54 54
Wind_Direction
231 231 233 235 235 235 236 236 236 236 236 236 236 236 236 235 236 238 238 239 240 241 242 242 242 243 243 244 245 243 243 247 250 251 254 258 261 265 269 272 272 273 273 273 275 278 279 280 281
232 233 234 235 236 237 237 238 237 236 237 237 236 236 237 237 237 238 238 239 239 241 242 242 243 244 244 245 245 245 246 249 253 254 257 261 263 267 270 272 272 271 271 272 274 276 276 278 279
233 234 235 236 237 237 238 237 237 236 236 237 237 237 238 238 238 238 238 239 240 241 241 242 244 245 246 246 247 247 248 250 253 255 260 264 266 269 271 272 273 273 272 272 273 275 276 278 280
234 235 236 237 236 236 237 236 235 235 236 237 238 239 239 239 239 238 238 240 241 242 242 243 244 245 247 247 249 249 250 252 255 257 261 264 268 271 274 274 275 276 275 274 274 275 276 278 280
234 235 236 236 236 236 235 235 235 234 235 236 238 240 239 239 238 238 239 240 241 242 243 244 244 244 246 249 251 253 254 256 258 260 262 265 268 272 274 275 276 277 277 275 275 275 277 278 279
234 234 235 235 236 236 235 235 235 235 236 237 239 240 240 239 239 239 239 241 242 242 242 242 243 244 245 248 251 255 257 259 261 263 265 266 269 272 274 275 276 276 275 275 274 275 276 277 278
234 234 234 235 235 234 235 236 236 236 237 238 238 239 240 240 240 239 239 240 242 242 242 243 243 245 247 249 252 255 258 261 263 265 266 267 270 271 273 274 274 274 274 273 273 274 275 276 276
234 235 234 233 234 234 235 236 237 237 236 236 237 238 239 240 240 240 239 240 242 243 244 245 246 248 249 251 253 256 259 261 263 265 266 267 269 270 272 273 274 274 274 272 272 273 274 275 276
234 234 234 233 234 234 235 236 237 237 236 236 236 238 239 240 241 241 241 242 243 245 246 247 248 249 251 253 255 257 260 262 265 266 267 267 268 269 271 273 273 274 274 273 273 273 274 275 276
234 234 234 235 235 234 235 236 236 236 236 237 237 238 239 240 241 242 242 243 244 245 247 248 249 251 252 255 257 259 262 264 265 266 266 267 269 270 271 272 273 274 274 273 274 274 274 274 275
235 235 234 234 235 235 235 235 235 236 237 238 239 239 240 241 242 243 244 245 245 247 248 249 251 253 255 256 258 260 262 264 266 267 267 268 269 269 270 271 272 273 274 274 275 275 275 275 275
235 234 234 234 235 236 236 236 236 237 239 240 240 241 242 243 244 245 246 246 246 248 249 251 252 254 255 257 259 260 262 264 266 267 268 268 268 269 270 271 272 273 273 274 275 276 276 276 276
236 235 235 235 236 236 237 237 237 238 240 242 243 243 243 244 245 245 246 247 247 248 250 251 253 254 256 258 259 261 262 264 265 267 267 267 268 269 271 272 273 274 274 274 275 276 277 276 277
236 235 235 236 237 237 238 238 239 239 241 243 244 245 245 245 246 246 247 248 248 249 250 251 253 255 257 258 260 261 263 264 266 267 267 268 268 269 271 272 273 274 275 276 275 276 277 277 277
237 236 236 236 237 238 240 240 241 241 242 243 244 245 246 247 248 248 248 249 248 249 250 252 253 255 257 259 261 263 264 265 266 268 269 268 269 269 271 273 274 275 276 277 277 276 277 277 278
238 238 237 237 239 240 241 241 242 242 243 244 245 246 247 248 249 249 250 249 249 250 251 252 255 257 258 260 262 263 265 266 267 268 269 269 270 271 272 273 274 275 276 277 278 278 277 278 278
238 239 239 239 240 242 243 242 242 244 244 244 244 245 247 248 249 250 250 250 250 251 252 254 256 257 258 260 261 263 265 267 268 269 270 270 270 271 272 274 275 275 277 278 278 278 278 278 279
239 240 240 241 241 243 244 244 244 246 247 246 246 246 247 248 249 250 250 249 250 251 253 254 256 257 259 260 262 264 266 267 268 270 271 271 271 272 273 274 274 275 277 277 278 278 279 279 279
240 240 241 242 243 244 245 246 246 247 248 248 248 247 247 248 249 249 249 250 251 252 253 255 257 259 260 261 263 265 267 267 268 270 271 271 271 272 272 273 275 276 277 278 279 279 280 280 279
240 241 242 242 244 245 246 246 247 248 249 250 249 248 247 248 248 249 250 250 251 253 254 256 258 260 261 263 264 266 267 268 269 270 271 272 272 272 272 273 275 276 278 278 278 280 281 281 280
241 241 243 244 245 246 247 246 247 247 249 249 249 249 248 248 249 249 249 250 251 253 255 257 259 261 262 263 265 266 268 269 271 272 272 272 273 273 273 273 275 277 278 279 279 281 282 283 282
241 242 244 245 246 246 247 248 245 247 248 249 250 250 249 249 249 249 249 250 252 254 255 257 259 261 263 264 266 267 269 271 272 272 272 272 273 273 274 274 275 276 278 279 281 282 283 284 283
242 242 243 245 247 247 247 249 246 247 248 249 251 251 250 250 250 250 250 251 252 254 257 258 260 262 263 265 266 268 270 271 272 272 273 273 273 274 274 274 275 276 278 279 281 282 283 284 284
241 242 243 245 246 248 247 250 248 247 249 249 250 251 250 250 250 250 251 252 253 256 258 260 261 263 264 265 267 269 270 272 273 273 273 273 273 273 274 274 275 276 278 280 281 282 283 284 284
240 241 243 245 246 249 249 250 249 249 249 250 251 251 251 251 250 250 251 253 255 258 260 261 263 265 266 267 268 270 271 272 273 273 273 274 273 274 275 275 276 277 279 281 282 283 283 284 285
240 242 243 246 248 250 250 251 251 251 251 252 253 253 252 250 250 251 252 254 256 259 261 262 264 266 267 269 269 270 271 272 272 273 274 274 274 274 276 277 278 279 281 282 283 284 284 284 285
239 241 244 247 249 251 252 252 252 253 253 254 255 254 252 250 251 252 253 255 257 260 262 263 264 266 268 269 270 271 271 271 272 272 273 274 275 276 277 278 279 280 282 283 283 284 285 285 286
238 240 242 244 248 250 252 252 253 254 255 255 255 254 252 251 251 253 254 256 259 261 262 263 265 266 268 269 270 270 270 271 271 272 273 274 275 277 278 280 280 281 282 284 284 285 286 286 286
238 240 242 244 247 250 252 254 254 256 256 256 255 254 253 253 253 254 255 257 259 261 262 263 265 266 268 269 270 269 270 271 272 273 274 275 276 277 279 280 281 283 284 285 286 286 286 287 287
239 240 242 244 247 249 252 254 255 257 257 256 255 254 253 253 255 256 257 259 260 262 262 264 265 266 267 268 269 270 270 271 272 273 275 277 278 278 279 281 282 284 285 285 286 286 287 287 287
Height
5834 5836 5838 5840 5842 5843 5845 5847 5848 5850 5851 5852 5854 5855 5857 5858 5860 5863 5862 5861 5862 5863 5863 5864 5865 5866 5866 5867 5867 5868 5868 5869 5869 5869 5870 5870 5870 5870 5870 5870 5869 5869 5869 5868 5868 5868 5867 5867 5866
5830 5832 5834 5836 5837 5839 5842 5843 5845 5846 5847 5849 5850 5852 5853 5854 5856 5857 5857 5858 5859 5860 5861 5862 5862 5863 5864 5865 5865 5866 5866 5867 5867 5867 5868 5868 5868 5868 5868 5867 5867 5867 5867 5866 5866 5865 5865 5865 5864
5826 5827 5830 5831 5833 5836 5838 5839 5841 5842 5843 5845 5846 5848 5850 5851 5852 5853 5854 5855 5856 5857 5858 5859 5860 5861 5862 5862 5863 5863 5864 5864 5865 5865 5865 5865 5865 5865 5865 5865 5865 5864 5864 5864 5863 5863 5863 5862 5862
5821 5823 5825 5828 5829 5831 5833 5835 5836 5838 5839 5841 5842 5844 5846 5848 5849 5850 5851 5852 5853 5854 5855 5856 5857 5858 5859 5860 5860 5861 5861 5862 5862 5863 5863 5863 5863 5863 5862 5862 5862 5862 5861 5861 5860 5860 5860 5859 5859
5816 5818 5820 5822 5825 5827 5828 5830 5832 5833 5835 5837 5838 5840 5842 5843 5845 5846 5848 5849 5850 5851 5852 5853 5854 5855 5856 5857 5857 5858 5858 5859 5859 5859 5860 5860 5860 5860 5859 5859 5859 5858 5858 5858 5857 5857 5857 5856 5856
5811 5814 5816 5818 5820 5822 5824 5825 5827 5829 5830 5832 5834 5836 5837 5839 5840 5842 5844 5845 5846 5847 5848 5849 5850 5852 5853 5853 5854 5855 5855 5855 5856 5856 5856 5856 5856 5856 5856 5856 5855 5855 5855 5854 5854 5853 5853 5853 5852
5807 5808 5811 5813 5815 5817 5819 5820 5822 5824 5826 5828 5830 5831 5833 5834 5836 5838 5839 5841 5842 5843 5845 5846 5847 5848 5849 5850 5850 5851 5851 5852 5852 5852 5852 5852 5852 5852 5852 5852 5851 5851 5851 5850 5850 5849 5849 5848 5848
5800 5804 5805 5808 5810 5812 5814 5815 5817 5819 5821 5823 5825 5827 5828 5830 5832 5833 5835 5836 5838 5839 5840 5841 5842 5844 5845 5845 5846 5847 5847 5848 5848 5848 5848 5848 5848 5848 5848 5847 5847 5846 5846 5846 5845 5845 5844 5844 5843
5794 5798 5800 5803 5805 5807 5809 5810 5812 5814 5816 5818 5820 5822 5824 5825 5827 5828 5830 5832 5833 5835 5836 5837 5838 5839 5840 5841 5842 5842 5843 5843 5843 5844 5844 5843 5843 5843 5843 5843 5842 5842 5841 5841 5840 5840 5839 5839 5838
5787 5791 5795 5798 5799 5801 5803 5805 5807 5809 5811 5813 5815 5816 5818 5820 5822 5823 5825 5827 5828 5830 5831 5832 5833 5834 5835 5836 5837 5837 5838 5838 5838 5839 5839 5838 5838 5838 5838 5837 5837 5837 5836 5836 5835 5835 5834 5833 5833
5781 5786 5789 5790 5792 5794 5797 5799 5801 5803 5805 5808 5809 5811 5813 5815 5817 5818 5820 5821 5823 5825 5826 5827 5828 5829 5830 5831 5832 5832 5833 5833 5833 5833 5833 5833 5833 5833 5832 5832 5832 5831 5831 5830 5830 5829 5828 5828 5827
5775 5779 5781 5784 5786 5788 5790 5793 5795 5797 5800 5802 5803 5805 5807 5809 5811 5813 5814 5816 5818 5819 5820 5821 5823 5824 5825 5825 5826 5827 5827 5828 5828 5828 5828 5827 5827 5827 5827 5826 5826 5825 5825 5824 5824 5823 5822 5821 5820
5768 5771 5774 5776 5779 5781 5784 5786 5789 5792 5794 5795 5797 5799 5801 5803 5805 5807 5808 5810 5812 5813 5814 5816 5817 5818 5819 5820 5820 5821 5821 5822 5822 5822 5822 5821 5821 5821 5821 5820 5820 5819 5818 5818 5817 5816 5815 5814 5814
5761 5764 5767 5769 5772 5774 5777 5780 5782 5786 5787 5789 5791 5793 5795 5797 5798 5800 5802 5804 5805 5807 5808 5809 5811 5812 5812 5813 5814 5815 5815 5815 5815 5815 5815 5815 5815 5814 5814 5814 5813 5812 5812 5811 5810 5809 5808 5807 5806
5753 5757 5759 5762 5764 5767 5770 5773 5776 5778 5780 5782 5784 5786 5788 5790 5792 5793 5795 5797 5799 5800 5801 5803 5804 5805 5806 5806 5807 5808 5808 5808 5808 5808 5808 5808 5808 5807 5807 5806 5806 5805 5804 5803 5802 5801 5800 5799 5797
5745 5748 5752 5755 5757 5759 5763 5767 5769 5770 5772 5774 5777 5779 5781 5783 5784 5786 5788 5790 5791 5793 5794 5796 5797 5798 5799 5799 5800 5800 5801 5801 5801 5801 5801 5800 5800 5800 5799 5798 5798 5797 5796 5795 5794 5792 5791 5790 5788
5736 5740 5744 5747 5749 5751 5754 5759 5762 5762 5764 5766 5769 5771 5773 5775 5777 5779 5781 5782 5784 5786 5787 5788 5790 5791 5791 5792 5793 5793 5793 5793 5793 5793 5793 5793 5792 5792 5791 5790 5789 5788 5787 5786 5784 5783 5782 5780 5778
5729 5732 5735 5738 5741 5743 5746 5750 5753 5754 5756 5758 5760 5763 5765 5767 5769 5771 5772 5775 5776 5778 5779 5781 5782 5783 5783 5784 5785 5785 5785 5785 5785 5785 5785 5784 5784 5783 5783 5781 5780 5779 5777 5776 5775 5773 5771 5770 5768
5719 5723 5726 5730 5732 5734 5737 5740 5743 5745 5747 5749 5751 5754 5756 5758 5760 5762 5764 5766 5768 5770 5771 5773 5774 5775 5775 5776 5776 5777 5777 5777 5776 5776 5775 5775 5774 5774 5773 5772 5770 5769 5768 5766 5764 5763 5761 5759 5756
5709 5713 5717 5721 5722 5724 5727 5731 5734 5735 5737 5740 5742 5744 5746 5749 5751 5753 5756 5758 5760 5762 5763 5765 5766 5766 5767 5767 5768 5768 5768 5767 5767 5766 5766 5765 5765 5764 5763 5762 5760 5759 5757 5756 5754 5752 5750 5747 5745
5700 5705 5708 5711 5713 5714 5718 5721 5725 5726 5727 5729 5732 5734 5736 5739 5741 5744 5747 5749 5751 5753 5755 5756 5757 5757 5758 5758 5758 5758 5758 5758 5758 5757 5756 5755 5754 5753 5752 5751 5750 5748 5746 5745 5743 5741 5738 5736 5733
5691 5695 5698 5701 5703 5705 5708 5710 5716 5717 5718 5720 5722 5724 5727 5729 5732 5734 5737 5740 5742 5744 5745 5747 5747 5748 5748 5748 5748 5748 5748 5748 5748 5746 5745 5744 5743 5742 5741 5740 5739 5737 5735 5734 5732 5730 5727 5724 5722
5681 5685 5688 5691 5692 5695 5698 5700 5706 5708 5709 5711 5713 5715 5717 5720 5722 5725 5728 5730 5732 5734 5735 5737 5738 5738 5738 5738 5738 5738 5738 5737 5736 5735 5734 5733 5732 5731 5730 5729 5728 5726 5724 5722 5720 5718 5716 5713 5710
5671 5675 5678 5679 5681 5685 5690 5690 5695 5698 5700 5702 5704 5705 5707 5710 5713 5715 5718 5720 5722 5724 5725 5727 5727 5728 5728 5728 5727 5727 5727 5726 5725 5724 5723 5722 5721 5720 5719 5718 5717 5715 5713 5711 5709 5706 5703 5701 5698
5661 5665 5668 5669 5671 5675 5680 5680 5685 5689 5691 5693 5695 5696 5698 5700 5703 5705 5708 5710 5712 5714 5715 5716 5716 5717 5716 5716 5716 5716 5715 5714 5713 5712 5712 5711 5710 5709 5708 5706 5705 5703 5701 5699 5697 5694 5691 5688 5685
5652 5655 5659 5661 5663 5666 5669 5670 5676 5680 5682 5683 5685 5687 5689 5691 5694 5696 5698 5701 5702 5704 5704 5705 5705 5705 5705 5705 5705 5704 5704 5703 5702 5701 5701 5700 5698 5697 5696 5695 5693 5691 5689 5686 5683 5681 5678 5675 5671
5640 5644 5649 5651 5652 5655 5657 5661 5666 5670 5672 5674 5676 5678 5679 5682 5684 5687 5689 5690 5692 5693 5693 5694 5694 5694 5694 5694 5693 5693 5692 5692 5691 5690 5689 5688 5687 5686 5684 5682 5680 5678 5676 5673 5670 5667 5664 5661 5657
5630 5635 5637 5639 5642 5645 5648 5652 5657 5660 5662 5664 5666 5668 5670 5673 5675 5677 5678 5680 5681 5682 5683 5683 5683 5683 5683 5683 5682 5682 5681 5680 5680 5679 5678 5677 5675 5673 5672 5670 5668 5665 5663 5660 5657 5653 5650 5646 5643
5620 5624 5627 5630 5632 5636 5638 5645 5648 5651 5653 5655 5656 5658 5660 5663 5665 5666 5668 5670 5671 5671 5672 5672 5672 5672 5672 5671 5671 5670 5669 5669 5668 5667 5666 5665 5663 5661 5659 5657 5655 5652 5649 5646 5643 5639 5636 5632 5629
5609 5613 5617 5621 5623 5626 5629 5636 5638 5641 5643 5644 5646 5648 5650 5652 5654 5656 5658 5659 5660 5660 5661 5661 5661 5661 5660 5660 5659 5659 5658 5657 5656 5655 5654 5652 5651 5649 5647 5644 5642 5639 5636 5632 5629 5626 5622 5618 5615